www.pogodaiklimat.ru

Погода и климат >> Архив погоды >> Оман >> Khasab


ПОГОДА в Khasab

  • Прогноз погоды в Khasab
  • Монитор погоды в Khasab
  • Климат города

АРХИВ ПОГОДЫ в Khasab

Время (UTC), дата Ветер
(напр.,м/с)
 
Видим.   Явления Облачность Т
(С)
Тd
(С)
f
(%)
Тe
(С)
Тes
(С)
Комфортность P
(гПа)
Po
(гПа)
Тmin
(С)
Tmax
(С)
R
(мм)
R24
(мм)
S
(см)
00 14.09 СЗ 2 н/о н/о +31.1 +28.3 85 +52 +52 опасность
перегрева
1002.2 1000.9
03 14.09 ЮВ 3 н/о н/о +30.6 +26.8 80 +48 +48 опасность
перегрева
1003.3 1001.9
06 14.09 В 5 н/о н/о +35.5 +24.0 52 +47 +47 опасность
перегрева
1004.1 1002.7 +30.3
09 14.09 В 8 н/о н/о +40.5 +14.7 22 +41 +41 опасность
перегрева
1002.4 1001.1
12 14.09 В 6 н/о н/о +41.2 +13.4 20 +41 +41 опасность
перегрева
1001.5 1000.1
15 14.09 З 2 н/о н/о +36.1 +20.1 39 +42 +42 опасность
перегрева
1002.0 1000.6
18 14.09 З 1 н/о н/о +35.3 +17.4 35 +39 +39 очень
душно
1003.6 1002.2 +42.2
21 14.09 ЮВ 2 н/о н/о +33.5 +18.4 41 +38 +38 очень
душно
1003.5 1002.2
00 15.09 ЮВ 5 н/о н/о +34.3 +17.6 37 +38 +38 очень
душно
1002.9 1001.5
03 15.09 ЮВ 2 н/о н/о +34.3 +15.3 32 +36 +36 душно 1004.0 1002.7
06 15.09 В 9 н/о н/о +35.4 +20.8 43 +42 +42 опасность
перегрева
1005.9 1004.5 +33.0
09 15.09 СВ 1 н/о н/о +38.9 +16.4 27 +41 +41 опасность
перегрева
1005.0 1003.7
12 15.09 СВ 3 н/о н/о +38.0 +18.7 32 +42 +42 опасность
перегрева
1003.9 1002.6
15 15.09 нст 1 н/о н/о +36.1 +19.8 39 +42 +42 опасность
перегрева
1003.9 1002.5
18 15.09 З 1 н/о н/о +34.2 +22.1 49 +43 +43 опасность
перегрева
1005.3 1003.9 +39.4
21 15.09 ЮВ 4 н/о н/о +34.4 +18.4 39 +39 +39 очень
душно
1004.8 1003.4
00 16.09 ЮВ 6 н/о н/о +32.8 +21.5 51 +41 +41 опасность
перегрева
1003.9 1002.5
03 16.09 ЮВ 7 н/о н/о +32.4 +21.8 54 +41 +41 опасность
перегрева
1005.0 1003.6
06 16.09 В 5 н/о н/о +33.8 +22.8 53 +44 +44 опасность
перегрева
1006.9 1005.6 +32.1
09 16.09 В 5 н/о н/о +34.4 +22.7 51 +44 +44 опасность
перегрева
1005.3 1003.9
12 16.09 В 5 н/о н/о +34.4 +23.4 53 +45 +45 опасность
перегрева
1003.6 1002.2
15 16.09 В 3 н/о н/о +33.8 +23.6 55 +45 +45 опасность
перегрева
1003.8 1002.4
18 16.09 В 6 н/о н/о +33.8 +23.0 53 +44 +44 опасность
перегрева
1004.2 1002.8 +35.6
21 16.09 ЮВ 6 н/о н/о +32.6 +22.9 57 +43 +43 опасность
перегрева
1003.6 1002.2
00 17.09 ЮВ 8 н/о н/о +31.6 +23.2 61 +42 +42 опасность
перегрева
1002.6 1001.2
03 17.09 В 5 н/о н/о +31.2 +22.7 61 +41 +41 опасность
перегрева
1004.5 1003.1
06 17.09 В 7 н/о н/о +32.6 +22.8 56 +42 +42 опасность
перегрева
1005.9 1004.5 +31.0
09 17.09 В 5 н/о н/о +33.8 +23.4 55 +45 +45 опасность
перегрева
1004.8 1003.5
12 17.09 В 2 н/о н/о +35.2 +22.8 49 +45 +45 опасность
перегрева
1003.7 1002.3
15 17.09 В 5 н/о н/о +34.0 +22.3 51 +43 +43 опасность
перегрева
1003.6 1002.2
18 17.09 В 5 н/о н/о +32.9 +22.0 53 +42 +42 опасность
перегрева
1004.9 1003.6 +35.9
21 17.09 ЮВ 7 н/о н/о +33.0 +21.2 50 +41 +41 опасность
перегрева
1004.3 1002.9
00 18.09 ЮВ 6 н/о н/о +31.6 +23.0 60 +42 +42 опасность
перегрева
1004.2 1002.8
03 18.09 ЮВ 6 н/о н/о +31.0 +23.4 64 +42 +42 опасность
перегрева
1006.0 1004.6
06 18.09 В 8 н/о н/о +32.0 +22.7 58 +42 +42 опасность
перегрева
1007.6 1006.2 +30.8
09 18.09 СВ 2 н/о н/о +35.5 +22.4 47 +45 +45 опасность
перегрева
1006.3 1004.9
12 18.09 С 2 н/о н/о +34.7 +21.5 46 +42 +42 опасность
перегрева
1004.9 1003.5
15 18.09 З 3 н/о н/о +33.2 +24.2 59 +45 +45 опасность
перегрева
1005.0 1003.6
18 18.09 штиль 0 н/о н/о +32.8 +22.1 53 +41 +41 опасность
перегрева
1006.4 1005.0 +36.1
21 18.09 нст 1 н/о н/о +32.8 +21.7 52 +41 +41 опасность
перегрева
1005.9 1004.5
00 19.09 ЮВ 3 н/о н/о +32.3 +21.4 53 +40 +40 очень
душно
1005.5 1004.2
03 19.09 ЮВ 7 н/о н/о +31.7 +22.0 56 +40 +40 очень
душно
1007.1 1005.7
06 19.09 СВ 3 н/о н/о +34.1 +22.9 52 +44 +44 опасность
перегрева
1008.6 1007.2 +31.3
09 19.09 З 4 н/о н/о +37.0 +13.2 24 +37 +37 очень
жарко
1006.7 1005.3
12 19.09 ЮЗ 4 н/о н/о +37.9 +10.7 19 +37 +37 очень
жарко
1004.8 1003.5
15 19.09 З 2 н/о н/о +36.6 +10.3 20 +35 +35 очень
жарко
1005.2 1003.8
18 19.09 СВ 3 н/о н/о +34.5 +19.4 41 +40 +40 очень
душно
1005.0 1003.6 +38.5
21 19.09 СВ 2 н/о н/о +32.5 +23.7 60 +44 +44 опасность
перегрева
1005.1 1003.8
00 20.09 З 1 н/о н/о +31.5 +22.7 60 +41 +41 опасность
перегрева
1004.7 1003.3
03 20.09 ЮВ 2 н/о н/о +31.1 +22.9 62 +41 +41 опасность
перегрева
1006.0 1004.6
06 20.09 СВ 3 н/о н/о +35.0 +21.4 45 +43 +43 опасность
перегрева
1007.2 1005.8 +30.3
09 20.09 СВ 3 н/о н/о +34.0 +24.2 57 +46 +46 опасность
перегрева
1006.0 1004.6
12 20.09 СВ 4 н/о н/о +33.3 +23.7 57 +44 +44 опасность
перегрева
1004.5 1003.2
15 20.09 С 1 н/о н/о +31.9 +24.2 64 +44 +44 опасность
перегрева
1004.8 1003.5
18 20.09 З 2 н/о н/о +31.4 +23.9 64 +43 +43 опасность
перегрева
1006.2 1004.8 +35.3
21 20.09 нст 1 н/о н/о +31.8 +23.1 60 +42 +42 опасность
перегрева
1005.1 1003.7

 

Местоположение метеостанции Khasab (Оман): широта 26.21 долгота 56.24 высота над уровнем моря 4 м.

В архиве по умолчанию представлена погода в Khasab за последнюю неделю. Архивные данные за месяц целиком и за предыдущие месяцы, начиная с января 2011 года, Вы можете получить, выбрав интересующий диапазон дат из раскрывающегося списка и нажав кнопку "Ввод!".


*Определитесь, кто Вы:
робот инопланетянин человек

Внимание! Время в таблицах - всемирное. Для получения местного времени необходимо прибавить поправку, которая в Khasab равна 4 ч.

Смотрите также архив погоды в соседних городах и на ближайших метеорологических станциях:

Погода в Khasab Airport (Оман) (5 км)
Погода в Diba (Оман) (66 км)
Погода в Ras Al Khaimah Int Airport (ОАЭ) (73 км)
Погода в Bandarabbass (Иран) (113 км)
Погода в Sharjah (ОАЭ) (122 км)
Погода в Fujairah (ОАЭ) (124 км)
Погода в Dubai (ОАЭ) (140 км)
Погода в Bandar Lengeh (Иран) (146 км)
Погода в Abu Musa Island (Иран) (147 км)
Погода в Jask (Иран) (166 км)

Пояснения к столбцам:

Ветер - указаны скорость ветра в м/с - средняя за 10 мин, порывы в срок и между сроками (в фигурных скобках) и направление, откуда дует ветер: С - северный, СВ - северо-восточный, В - восточный, ЮВ - юго-восточный, Ю - южный, ЮЗ - юго-западный, З - западный, СЗ - северо-западный.
Видимость - горизонтальная дальность видимости в метрах или километрах. При видимости от 1 до 10 км при отсутствии осадков обычно наблюдается дымка, при ухудшении видимости до 1 км и менее - туман. В сухую погоду видимость может ухудшаться дымом, пылью или мглою.
Явления - указаны атмосферные явления, наблюдавшиеся в срок или в последний час перед сроком; фигурными скобками обозначены явления, наблюдавшиеся между сроками (за 1-3 часа до срока); квадратными скобками обозначены град или гололедные отложения с указанием их диаметра в мм.
Облачность - указаны через наклонную черту общая и нижняя облачность в баллах и высота нижней границы облаков в метрах; квадратными скобками обозначены формы облаков: Ci - перистые, Cs - перисто-слоистые, Cc - перисто-кучевые, Ac - высококучевые, As - высокослоистые, Sc - слоисто-кучевые, Ns - слоисто-дождевые, Cu - кучевые, Cb - кучево-дождевые. Подробнее классификацию облаков см. в Атласе облаков (PDF).
T - Температура воздуха - температура, измеренная на высоте 2 м над землей.
Td - Температура точки росы - температура, при понижении до которой содержащийся в воздухе водяной пар достигнет насыщения.
f - Относительная влажность воздуха - влажноcть воздуха, измеренная на высоте 2 м над землей.
Te - Эффективная температура - температура, которую ощущает одетый по сезону человек в тени. Характеристика душности погоды. При расчете учитывается влияние влажности воздуха и скорости ветра на теплоощущения человека.
Tes - Эффективная температура на солнце - температура, которую ощущает человек, с поправкой на солнечный нагрев. Характеристика знойности погоды. Зависит от высоты солнца над горизонтом, облачности и скорости ветра. Ночью, в пасмурную погоду, а также при ветре 12 м/с и более поправка равна нулю.
P - Атмосферное давление - приведенное к уровню моря атмосферное давление.
Po - Атмосферное давление - измеренное на уровне метеостанции атмосферное давление.
Tmin - Минимальная температура - минимум температуры воздуха на высоте 2 м над землей.
Tmax - Максимальная температура - максимум температуры воздуха на высоте 2 м над землей.
R - Количество осадков - Количество выпавших осадков за период времени, мм. При наведении курсора мыши на число - период времени, за который выпало указанное количество осадков.
R24 - Количество осадков - Количество выпавших осадков за 24 часа, мм.
S - Снежный покров - Высота снежного покрова, см. При наведении курсора мыши на число - состояние снежного покрова и степень покрытия местности в баллах.